Wetterdaten am Flugplatz MSG Übersee

alte Datensätze gelöscht
127 aktuelle Wetterdateneinträge gefunden

Datum/Uhrzeit   Windrichtung/Grad    Geschw./kmh    Temp./C°    Luftdruck/mbar    Spannung/Volt   
2026-09-06 00:03 SW/245 2 19 1029 12,29
2026-09-06 00:13 W/249 2 19 1029 12,32
2026-09-06 00:23 W/254 4 19 1029 12,35
2026-09-06 00:34 W/263 2 19 1029 12,36
2026-09-06 00:44 W/261 2 19 1029 12,01
2026-09-06 00:54 W/256 5 19 1029 12,20
2026-09-06 01:04 W/250 6 19 1029 12,23
2026-09-06 01:14 W/254 5 19 1029 12,26
2026-09-06 01:24 W/250 6 19 1029 12,27
2026-09-06 01:34 SW/243 7 19 1029 12,30
2026-09-06 01:44 SW/237 8 19 1029 11,89
2026-09-06 01:54 SW/244 7 19 1029 12,18
2026-09-06 02:04 W/252 6 19 1029 12,21
2026-09-06 02:14 SW/245 7 19 1029 12,24
2026-09-06 02:24 SW/243 7 19 1029 12,26
2026-09-06 02:34 SW/242 7 18 1029 12,29
2026-09-06 02:44 SW/242 6 18 1029 12,30
2026-09-06 02:54 SW/242 4 18 1029 11,91
2026-09-06 03:04 SW/242 1 18 1029 12,16
2026-09-06 03:15 SW/247 1 18 1029 12,18
2026-09-06 03:25 NW/322 7 18 1029 12,23
2026-09-06 03:35 SW/246 5 18 1029 12,24
2026-09-06 03:45 S/184 5 18 1029 12,27
2026-09-06 03:55 S/194 5 17 1029 12,30
2026-09-06 04:05 SW/229 3 17 1029 11,83
2026-09-06 04:15 SW/235 2 17 1029 12,14
2026-09-06 04:25 SW/237 4 17 1029 12,17
2026-09-06 04:35 SW/237 3 17 1029 12,20
2026-09-06 04:45 SW/237 1 17 1029 12,21
2026-09-06 04:55 SW/237 1 17 1029 12,24
2026-09-06 05:05 SW/237 0 17 1029 11,85
2026-09-06 05:15 SW/237 0 17 1029 12,13
2026-09-06 05:25 SW/237 0 17 1029 12,16
2026-09-06 05:35 SW/237 2 16 1029 12,18
2026-09-06 05:45 SW/237 1 16 1029 12,20
2026-09-06 05:55 SW/237 0 16 1029 12,07
2026-09-06 06:06 SW/237 0 16 1029 12,13
2026-09-06 06:16 SW/237 1 16 1029 12,16
2026-09-06 06:26 SW/237 0 16 1029 12,17
2026-09-06 06:36 SW/237 0 16 1029 12,07
2026-09-06 06:46 SW/237 2 16 1029 12,11
2026-09-06 06:56 SW/237 1 16 1030 12,14
2026-09-06 07:06 SW/237 0 16 1030 12,16
2026-09-06 07:16 SW/237 2 15 1030 12,05
2026-09-06 07:26 SW/237 4 15 1030 12,10
2026-09-06 07:36 SW/237 1 15 1030 12,13
2026-09-06 07:46 SW/237 1 15 1030 12,16
2026-09-06 07:56 SW/237 2 15 1030 12,05
2026-09-06 08:06 SW/237 0 16 1030 12,13
2026-09-06 08:16 SW/237 0 16 1030 12,14
2026-09-06 08:26 SW/238 2 17 1030 12,20
2026-09-06 08:36 NW/293 4 17 1030 12,13
2026-09-06 08:47 NW/312 5 18 1030 12,21
2026-09-06 08:57 NW/329 7 19 1030 12,26
2026-09-06 09:07 NW/331 8 20 1030 12,27
2026-09-06 09:17 NW/326 7 21 1030 12,30
2026-09-06 09:27 NW/334 8 21 1030 12,33
2026-09-06 09:37 NW/335 9 22 1030 11,95
2026-09-06 09:47 N/338 9 23 1030 12,30
2026-09-06 09:57 N/342 10 23 1030 12,43
2026-09-06 10:07 N/338 10 24 1030 12,58
2026-09-06 10:17 NW/326 10 24 1030 12,54
2026-09-06 10:27 N/344 11 25 1030 12,55
2026-09-06 10:37 N/350 7 25 1030 12,54
2026-09-06 10:47 N/356 6 26 1030 12,55
2026-09-06 10:58 NW/330 6 26 1030 12,55
2026-09-06 11:08 NW/319 7 26 1030 12,58
2026-09-06 11:18 NW/333 9 27 1030 12,04
2026-09-06 11:28 N/347 8 27 1030 12,35
2026-09-06 11:38 N/341 11 27 1030 12,36
2026-09-06 11:48 N/353 12 27 1030 12,38
2026-09-06 11:58 N/360 11 27 1030 12,40
2026-09-06 12:08 N/14 9 27 1030 12,42
2026-09-06 12:18 NO/34 12 27 1030 12,43
2026-09-06 12:28 N/12 11 27 1030 12,46
2026-09-06 12:38 N/2 11 27 1030 12,48
2026-09-06 12:48 N/4 11 27 1030 12,49
2026-09-06 12:59 N/18 8 27 1030 12,49
2026-09-06 13:09 NO/30 8 27 1030 12,51
2026-09-06 13:19 N/357 8 27 1030 12,07
2026-09-06 13:29 N/348 10 27 1029 12,26
2026-09-06 13:39 N/19 9 28 1029 12,30
2026-09-06 13:49 N/7 11 27 1029 12,33
2026-09-06 13:59 N/360 12 27 1029 12,36
2026-09-06 14:09 N/358 12 27 1029 12,38
2026-09-06 14:19 N/7 13 27 1029 12,40
2026-09-06 14:29 N/20 10 27 1029 12,42
2026-09-06 14:39 N/360 14 27 1029 12,43
2026-09-06 14:49 N/2 11 27 1029 12,45
2026-09-06 14:59 N/358 14 27 1029 12,48
2026-09-06 15:09 N/1 13 28 1029 12,05
2026-09-06 15:19 N/10 11 28 1029 12,57
2026-09-06 15:30 N/355 14 28 1028 12,61
2026-09-06 15:40 N/5 13 28 1028 12,71
2026-09-06 15:50 N/6 13 28 1028 12,77
2026-09-06 16:00 N/5 13 27 1028 12,73
2026-09-06 16:10 N/356 14 27 1028 12,74
2026-09-06 16:20 N/8 12 27 1028 12,74
2026-09-06 16:30 N/358 11 27 1028 12,74
2026-09-06 16:40 N/5 12 27 1028 12,76
2026-09-06 16:50 N/358 12 27 1028 12,35
2026-09-06 17:00 N/353 13 27 1028 12,54
2026-09-06 17:10 N/349 15 27 1028 12,58
2026-09-06 17:20 N/3 12 27 1028 12,60
2026-09-06 17:30 N/2 12 27 1028 12,61
2026-09-06 17:40 N/359 12 27 1028 12,64
2026-09-06 17:50 N/357 13 27 1028 12,65
2026-09-06 18:00 N/9 10 26 1028 12,67
2026-09-06 18:11 N/19 11 26 1028 12,68
2026-09-06 18:21 NO/50 15 26 1028 12,68
2026-09-06 18:31 NO/66 12 26 1028 12,73
2026-09-06 18:41 O/73 9 25 1028 12,30
2026-09-06 18:51 O/78 9 25 1028 12,46
2026-09-06 19:01 O/75 8 25 1028 12,51
2026-09-06 19:11 O/73 7 25 1028 12,54
2026-09-06 19:21 O/73 2 24 1028 12,57
2026-09-06 19:31 O/73 1 24 1028 12,65
2026-09-06 19:41 O/73 0 24 1028 12,60
2026-09-06 19:51 O/75 2 23 1028 12,62
2026-09-06 20:01 O/77 2 23 1028 12,64
2026-09-06 20:11 O/81 1 22 1028 12,01
2026-09-06 20:21 O/82 1 22 1028 12,23
2026-09-06 20:31 O/83 0 22 1028 12,46
2026-09-06 20:41 O/83 1 21 1028 12,48
2026-09-06 20:51 O/83 1 21 1028 12,52
2026-09-06 21:01 O/83 0 21 1028 12,54
2026-09-06 21:12 O/83 2 20 1028 12,55